Temp
-7 -7 -7 -7 -7 -7 -7 -7 -7 -7 -7 -7 -7 -7 -7 -7 -7 -7 -7 -7 -7 -7 -7 -7 -7 -7 -7 -7 -7 -7 -8 -8 -8 -8 -8 -8 -8 -7 -7 -7 -7 -7 -7 -7 -7 -7 -7 -7 -8 -8 -8 -8 -8 -7 -7 -8 -8 -8 -8 -8 -8 -8 -8
-7 -7 -7 -7 -7 -7 -7 -7 -7 -7 -7 -7 -7 -7 -7 -7 -7 -7 -7 -7 -7 -7 -7 -7 -7 -7 -7 -7 -7 -7 -8 -8 -8 -8 -8 -8 -8 -8 -8 -7 -7 -7 -7 -7 -7 -7 -7 -7 -8 -8 -8 -8 -8 -8 -8 -8 -8 -8 -8 -8 -8 -8 -8
-7 -7 -7 -7 -7 -7 -7 -7 -7 -8 -7 -7 -7 -7 -7 -7 -7 -7 -7 -7 -7 -7 -7 -7 -7 -7 -7 -7 -7 -8 -8 -8 -8 -8 -8 -8 -8 -8 -8 -8 -8 -8 -7 -8 -8 -7 -7 -8 -8 -8 -8 -8 -8 -8 -8 -8 -8 -8 -8 -8 -8 -8 -8
-7 -7 -7 -7 -7 -7 -8 -8 -8 -8 -8 -8 -7 -7 -7 -7 -7 -7 -7 -7 -7 -7 -7 -7 -7 -7 -7 -7 -7 -8 -8 -8 -8 -8 -8 -8 -8 -8 -8 -8 -8 -8 -8 -8 -8 -8 -8 -8 -8 -8 -8 -8 -8 -8 -8 -8 -8 -8 -8 -8 -8 -8 -9
-7 -7 -7 -7 -7 -7 -8 -8 -8 -8 -8 -8 -8 -7 -7 -7 -7 -7 -7 -7 -7 -7 -7 -7 -7 -7 -7 -7 -7 -8 -8 -8 -8 -8 -8 -8 -8 -8 -8 -8 -8 -8 -8 -8 -8 -8 -8 -8 -8 -8 -8 -8 -8 -8 -8 -8 -8 -8 -8 -8 -8 -9 -9
-7 -7 -7 -7 -7 -7 -8 -8 -8 -8 -8 -8 -8 -7 -7 -7 -7 -7 -7 -7 -7 -7 -7 -7 -7 -7 -7 -7 -7 -8 -8 -8 -8 -8 -8 -8 -8 -8 -8 -8 -8 -8 -8 -8 -8 -8 -8 -8 -8 -8 -8 -8 -8 -8 -8 -8 -8 -8 -9 -8 -9 -9 -9
-7 -7 -7 -7 -7 -7 -7 -8 -8 -8 -8 -8 -7 -7 -7 -7 -7 -7 -7 -7 -7 -7 -7 -7 -7 -7 -7 -7 -7 -8 -8 -8 -8 -8 -8 -8 -8 -8 -8 -8 -8 -8 -8 -8 -8 -8 -8 -8 -8 -8 -8 -8 -8 -8 -8 -8 -8 -9 -9 -9 -9 -9 -9
-7 -7 -7 -7 -7 -7 -7 -8 -8 -8 -8 -7 -7 -7 -7 -7 -7 -7 -7 -7 -7 -7 -7 -7 -7 -7 -7 -7 -7 -8 -8 -8 -8 -8 -8 -8 -8 -8 -8 -8 -8 -8 -8 -8 -8 -8 -8 -8 -8 -8 -8 -9 -8 -8 -8 -8 -8 -9 -9 -9 -9 -9 -9
-7 -7 -7 -7 -7 -7 -7 -8 -8 -8 -8 -7 -7 -8 -7 -7 -7 -7 -7 -7 -7 -7 -7 -7 -7 -7 -7 -7 -7 -8 -8 -8 -8 -8 -8 -8 -8 -8 -8 -8 -8 -8 -8 -8 -8 -9 -9 -8 -8 -8 -9 -9 -9 -8 -8 -8 -9 -9 -9 -9 -9 -9 -9
-7 -7 -7 -7 -7 -7 -7 -8 -8 -8 -7 -7 -8 -8 -8 -8 -8 -8 -8 -8 -8 -7 -7 -7 -7 -7 -7 -7 -7 -8 -8 -8 -8 -8 -8 -8 -8 -8 -8 -8 -8 -8 -8 -8 -8 -9 -9 -9 -8 -9 -9 -9 -9 -9 -9 -9 -9 -9 -9 -9 -9 -9 -9
-7 -7 -7 -7 -7 -7 -7 -7 -8 -8 -7 -7 -8 -8 -8 -8 -8 -8 -8 -8 -8 -8 -8 -7 -7 -7 -7 -7 -7 -8 -8 -8 -8 -8 -8 -8 -8 -8 -8 -8 -8 -8 -9 -9 -9 -9 -9 -9 -9 -9 -9 -9 -9 -9 -9 -9 -9 -9 -9 -9 -9 -9 -9
-7 -7 -7 -7 -7 -8 -7 -7 -8 -8 -8 -8 -8 -8 -8 -8 -8 -8 -8 -8 -8 -8 -8 -8 -7 -7 -7 -7 -7 -8 -8 -8 -8 -8 -8 -8 -8 -8 -8 -8 -8 -9 -9 -9 -9 -9 -9 -9 -9 -9 -9 -9 -9 -9 -9 -9 -9 -9 -10 -10 -10 -9 -9
-7 -7 -7 -7 -8 -8 -8 -8 -8 -8 -8 -8 -8 -8 -8 -8 -8 -8 -8 -8 -8 -8 -8 -8 -8 -8 -8 -7 -7 -8 -8 -8 -8 -8 -8 -8 -8 -9 -9 -9 -9 -9 -9 -9 -9 -9 -9 -9 -9 -10 -9 -9 -9 -9 -9 -9 -9 -10 -10 -10 -10 -10 -9
-7 -7 -7 -7 -7 -8 -8 -8 -8 -8 -8 -8 -8 -8 -8 -8 -8 -8 -8 -8 -8 -8 -8 -8 -8 -8 -8 -8 -8 -8 -8 -7 -7 -8 -8 -9 -9 -9 -9 -9 -10 -10 -10 -9 -9 -10 -10 -10 -10 -10 -10 -9 -9 -9 -9 -9 -10 -10 -10 -10 -10 -10 -10
-7 -7 -7 -7 -8 -8 -8 -8 -8 -8 -8 -8 -8 -8 -8 -8 -8 -8 -8 -8 -8 -8 -8 -8 -8 -8 -8 -8 -8 -7 -7 -7 -8 -8 -9 -9 -9 -9 -9 -10 -10 -10 -10 -10 -10 -10 -10 -10 -10 -10 -10 -10 -9 -10 -10 -10 -10 -10 -10 -10 -10 -10 -10
-7 -7 -7 -8 -8 -8 -8 -8 -8 -8 -8 -8 -8 -8 -8 -8 -8 -8 -8 -8 -8 -8 -8 -8 -8 -8 -8 -8 -7 -7 -7 -8 -8 -9 -9 -9 -9 -10 -10 -10 -10 -10 -10 -10 -10 -10 -10 -10 -10 -10 -10 -10 -10 -10 -10 -10 -10 -10 -10 -10 -10 -10 -10
-7 -7 -7 -8 -8 -8 -8 -8 -8 -8 -8 -8 -8 -8 -8 -8 -8 -8 -8 -8 -8 -8 -8 -8 -8 -8 -8 -8 -8 -8 -8 -8 -9 -9 -9 -9 -9 -10 -10 -10 -10 -10 -10 -10 -10 -10 -10 -10 -10 -10 -10 -10 -10 -10 -10 -10 -10 -10 -10 -10 -10 -10 -10
-7 -7 -8 -8 -8 -8 -8 -8 -8 -8 -8 -8 -8 -8 -8 -8 -8 -8 -8 -9 -9 -8 -8 -8 -8 -8 -8 -8 -8 -8 -8 -8 -9 -9 -9 -9 -9 -9 -9 -10 -10 -10 -10 -10 -10 -10 -10 -10 -10 -10 -10 -10 -10 -10 -10 -10 -10 -10 -10 -10 -10 -10 -10
-7 -7 -8 -8 -8 -8 -8 -8 -8 -8 -9 -9 -8 -8 -8 -8 -8 -8 -8 -8 -9 -9 -8 -8 -8 -8 -8 -8 -8 -8 -8 -8 -9 -9 -9 -9 -9 -9 -9 -10 -10 -10 -10 -10 -10 -10 -10 -10 -10 -10 -10 -11 -11 -11 -11 -10 -10 -10 -10 -10 -10 -10 -10
-7 -8 -8 -8 -8 -8 -8 -8 -8 -8 -9 -8 -8 -8 -8 -8 -8 -8 -8 -8 -8 -8 -8 -8 -8 -8 -8 -8 -8 -8 -8 -8 -9 -9 -9 -9 -9 -9 -9 -10 -10 -10 -10 -10 -10 -10 -10 -10 -10 -11 -11 -11 -11 -11 -11 -11 -10 -10 -10 -10 -10 -10 -10
-7 -8 -8 -8 -8 -8 -8 -8 -8 -8 -8 -8 -8 -8 -8 -8 -8 -8 -8 -8 -8 -8 -8 -8 -8 -8 -8 -8 -9 -9 -8 -8 -9 -9 -9 -9 -9 -9 -10 -10 -10 -10 -10 -10 -10 -10 -10 -10 -11 -11 -11 -11 -11 -11 -11 -11 -11 -10 -10 -11 -11 -10 -11
-8 -8 -8 -8 -8 -8 -8 -8 -8 -8 -8 -8 -8 -8 -8 -8 -8 -8 -8 -9 -9 -8 -8 -8 -8 -8 -8 -9 -9 -9 -8 -8 -9 -9 -9 -9 -9 -9 -10 -10 -10 -10 -11 -10 -10 -10 -10 -11 -11 -11 -11 -11 -11 -11 -11 -11 -11 -11 -11 -11 -11 -11 -11
-8 -8 -8 -8 -8 -8 -8 -8 -8 -9 -9 -8 -8 -8 -8 -8 -8 -8 -9 -9 -9 -9 -9 -9 -8 -8 -8 -8 -9 -9 -8 -8 -9 -9 -9 -9 -9 -10 -10 -10 -10 -10 -11 -10 -10 -10 -10 -10 -11 -11 -11 -11 -11 -11 -11 -11 -11 -11 -11 -11 -11 -11 -11
-8 -8 -8 -8 -8 -8 -8 -9 -9 -9 -9 -9 -9 -9 -9 -9 -9 -9 -8 -9 -9 -9 -9 -9 -9 -9 -9 -8 -9 -9 -8 -8 -9 -9 -9 -9 -9 -9 -10 -10 -10 -10 -10 -10 -10 -10 -10 -10 -10 -11 -11 -11 -11 -11 -11 -11 -11 -11 -11 -11 -11 -11 -11
-8 -8 -8 -8 -8 -9 -9 -9 -9 -9 -9 -9 -9 -9 -9 -9 -9 -9 -9 -9 -9 -9 -9 -9 -9 -9 -9 -8 -8 -9 -9 -9 -9 -9 -9 -8 -8 -9 -10 -10 -10 -10 -10 -10 -10 -10 -10 -10 -10 -11 -11 -12 -11 -11 -11 -11 -12 -12 -12 -11 -11 -11 -11
-8 -8 -8 -8 -9 -9 -9 -9 -9 -9 -9 -9 -9 -9 -9 -9 -9 -9 -9 -9 -9 -9 -9 -9 -9 -9 -9 -9 -9 -9 -9 -9 -9 -9 -9 -8 -8 -9 -10 -10 -10 -10 -10 -10 -10 -11 -11 -11 -11 -11 -11 -12 -12 -12 -11 -11 -12 -12 -12 -12 -12 -12 -12
-9 -9 -9 -8 -8 -8 -8 -8 -9 -9 -9 -9 -9 -9 -9 -9 -9 -9 -9 -9 -9 -9 -9 -9 -9 -9 -9 -9 -9 -9 -9 -9 -9 -9 -9 -9 -8 -9 -10 -10 -10 -10 -11 -11 -11 -11 -11 -11 -11 -11 -11 -12 -12 -12 -12 -12 -12 -12 -12 -12 -12 -12 -12
-9 -9 -9 -9 -9 -8 -8 -8 -8 -9 -9 -9 -9 -9 -9 -9 -9 -9 -9 -9 -9 -9 -9 -9 -9 -10 -10 -10 -10 -10 -10 -9 -9 -9 -9 -9 -9 -10 -10 -10 -11 -11 -11 -11 -12 -11 -11 -11 -11 -11 -11 -12 -12 -12 -12 -12 -12 -12 -12 -12 -12 -12 -12
-9 -9 -9 -9 -9 -9 -9 -9 -9 -9 -9 -9 -9 -9 -9 -9 -9 -9 -9 -9 -9 -9 -9 -9 -10 -10 -10 -10 -10 -10 -10 -9 -9 -9 -9 -9 -10 -10 -10 -10 -11 -11 -12 -12 -12 -11 -11 -11 -11 -11 -12 -12 -12 -12 -13 -13 -12 -12 -12 -12 -13 -12 -12
-9 -9 -9 -9 -9 -9 -9 -9 -9 -9 -9 -9 -9 -9 -10 -9 -9 -9 -9 -10 -10 -10 -9 -9 -10 -10 -10 -10 -10 -10 -9 -9 -9 -9 -9 -9 -10 -11 -11 -11 -11 -12 -11 -12 -12 -11 -11 -11 -12 -12 -12 -12 -12 -13 -13 -12 -12 -12 -13 -13 -12 -12 -13
-9 -9 -9 -9 -9 -9 -9 -9 -9 -10 -10 -10 -10 -10 -10 -9 -9 -9 -10 -10 -10 -10 -10 -10 -10 -10 -10 -10 -10 -9 -9 -9 -9 -9 -9 -9 -10 -11 -11 -12 -12 -11 -11 -12 -12 -12 -12 -12 -12 -12 -12 -12 -13 -13 -13 -12 -13 -13 -13 -12 -12 -13 -13
-9 -9 -9 -9 -9 -10 -10 -10 -10 -10 -10 -10 -10 -10 -10 -9 -9 -10 -10 -10 -10 -10 -10 -10 -10 -10 -10 -10 -9 -9 -9 -9 -9 -9 -9 -10 -10 -10 -11 -11 -11 -11 -12 -12 -12 -12 -12 -12 -12 -12 -13 -13 -13 -13 -13 -13 -13 -13 -13 -13 -13 -13 -13
-10 -9 -9 -9 -9 -10 -10 -10 -10 -10 -10 -10 -10 -10 -10 -10 -10 -10 -10 -10 -10 -10 -10 -10 -10 -10 -10 -9 -9 -9 -9 -9 -10 -10 -10 -10 -10 -10 -11 -11 -11 -11 -11 -11 -11 -12 -12 -12 -12 -13 -13 -13 -13 -13 -13 -13 -13 -13 -13 -13 -13 -13 -13
-10 -9 -9 -9 -10 -10 -10 -10 -10 -10 -10 -10 -10 -10 -10 -10 -10 -10 -10 -10 -10 -10 -10 -10 -10 -10 -10 -10 -9 -9 -10 -10 -10 -10 -10 -10 -10 -11 -11 -11 -11 -11 -11 -11 -12 -12 -12 -12 -13 -13 -13 -13 -13 -13 -13 -13 -13 -13 -13 -13 -13 -13 -14
-9 -10 -10 -10 -10 -10 -10 -10 -10 -10 -10 -10 -10 -10 -10 -10 -10 -10 -10 -10 -10 -10 -10 -10 -10 -10 -10 -10 -10 -10 -10 -10 -10 -10 -11 -11 -11 -11 -11 -11 -11 -11 -12 -12 -12 -12 -13 -13 -13 -13 -13 -13 -14 -14 -14 -14 -14 -13 -13 -13 -14 -14 -14
-9 -9 -10 -10 -9 -9 -10 -10 -10 -10 -10 -10 -10 -10 -10 -10 -10 -10 -10 -10 -10 -10 -10 -10 -10 -10 -10 -10 -10 -10 -10 -10 -10 -11 -11 -11 -11 -11 -11 -12 -12 -12 -12 -12 -13 -13 -13 -13 -13 -13 -14 -14 -14 -14 -14 -14 -13 -13 -13 -14 -14 -14 -14
-9 -9 -10 -9 -9 -9 -10 -10 -10 -10 -10 -10 -10 -10 -10 -10 -10 -11 -11 -10 -10 -10 -10 -10 -10 -10 -10 -10 -10 -10 -10 -10 -10 -11 -11 -12 -12 -12 -12 -12 -12 -12 -12 -13 -13 -13 -13 -13 -13 -14 -14 -14 -14 -14 -14 -13 -13 -13 -14 -14 -14 -14 -14
-10 -10 -10 -9 -9 -9 -10 -10 -10 -10 -10 -10 -10 -10 -10 -11 -11 -11 -10 -10 -10 -10 -10 -10 -10 -10 -10 -10 -10 -11 -11 -11 -11 -11 -12 -12 -12 -12 -12 -12 -12 -12 -13 -13 -13 -13 -13 -13 -14 -14 -14 -14 -14 -14 -14 -13 -13 -14 -14 -14 -14 -15 -15
Height
5903 5903 5902 5902 5902 5902 5902 5902 5903 5903 5903 5903 5902 5902 5902 5903 5903 5903 5904 5904 5903 5903 5903 5903 5902 5901 5901 5900 5900 5900 5899 5898 5898 5897 5896 5896 5895 5894 5894 5893 5892 5891 5890 5889 5888 5887 5886 5885 5884 5883 5882 5881 5880 5879 5878 5877 5876 5875 5874 5874 5873 5872 5871
5901 5901 5901 5901 5901 5901 5901 5901 5901 5901 5901 5900 5900 5900 5900 5900 5900 5900 5900 5900 5900 5900 5900 5900 5900 5899 5898 5898 5898 5897 5897 5896 5895 5895 5894 5893 5892 5892 5891 5890 5889 5888 5887 5886 5885 5884 5883 5882 5881 5880 5879 5878 5877 5876 5876 5875 5874 5873 5872 5871 5870 5869 5868
5899 5899 5899 5899 5899 5899 5899 5899 5899 5899 5899 5899 5898 5899 5898 5898 5898 5897 5897 5897 5897 5897 5897 5897 5897 5896 5896 5895 5895 5895 5894 5893 5893 5892 5891 5891 5890 5889 5888 5887 5886 5885 5884 5883 5882 5881 5880 5879 5878 5877 5876 5876 5875 5874 5873 5872 5871 5870 5869 5868 5867 5866 5865
5897 5897 5897 5897 5897 5897 5897 5897 5897 5897 5897 5896 5896 5896 5896 5896 5895 5895 5895 5894 5894 5894 5894 5894 5894 5894 5893 5893 5892 5892 5891 5891 5890 5890 5889 5888 5888 5886 5885 5884 5883 5882 5880 5880 5879 5879 5877 5876 5875 5875 5874 5873 5873 5872 5871 5870 5869 5867 5866 5865 5864 5863 5862
5895 5895 5895 5895 5896 5896 5895 5895 5895 5894 5894 5893 5893 5893 5893 5893 5893 5893 5892 5892 5892 5892 5892 5891 5891 5891 5891 5890 5890 5889 5888 5888 5888 5887 5886 5886 5885 5883 5882 5881 5880 5879 5878 5877 5877 5876 5875 5874 5873 5872 5872 5871 5870 5870 5869 5868 5866 5865 5863 5862 5861 5860 5858
5893 5893 5893 5894 5894 5894 5894 5893 5893 5892 5891 5891 5890 5890 5890 5890 5890 5891 5890 5890 5890 5889 5889 5889 5889 5889 5888 5887 5887 5886 5886 5886 5885 5885 5884 5883 5882 5880 5879 5878 5877 5876 5875 5874 5874 5873 5872 5871 5870 5870 5869 5869 5868 5867 5866 5865 5863 5862 5860 5859 5857 5856 5854
5891 5892 5892 5892 5892 5892 5892 5892 5891 5890 5889 5888 5888 5887 5887 5887 5888 5888 5888 5888 5888 5887 5887 5887 5887 5886 5886 5885 5885 5884 5883 5883 5882 5882 5881 5880 5878 5877 5876 5875 5873 5873 5873 5872 5871 5870 5869 5868 5868 5867 5866 5866 5865 5864 5863 5862 5861 5859 5858 5856 5854 5853 5851
5889 5890 5890 5890 5891 5890 5891 5890 5889 5888 5887 5886 5886 5885 5885 5885 5885 5885 5885 5886 5886 5886 5885 5885 5884 5884 5883 5883 5882 5881 5880 5879 5879 5878 5877 5876 5875 5873 5872 5871 5870 5870 5870 5869 5868 5867 5866 5865 5865 5864 5863 5862 5861 5861 5860 5858 5857 5855 5853 5852 5850 5849 5848
5887 5888 5888 5888 5888 5888 5888 5888 5887 5886 5885 5884 5884 5883 5883 5883 5883 5883 5883 5883 5883 5883 5883 5882 5882 5882 5881 5880 5879 5878 5877 5876 5875 5875 5874 5872 5871 5870 5869 5868 5867 5868 5868 5866 5865 5864 5863 5862 5862 5861 5860 5859 5858 5857 5856 5854 5853 5851 5849 5847 5846 5845 5843
5884 5885 5885 5885 5886 5886 5886 5886 5885 5884 5883 5882 5882 5881 5881 5881 5881 5881 5881 5881 5881 5880 5880 5879 5879 5878 5878 5877 5876 5874 5873 5872 5871 5871 5870 5869 5867 5865 5864 5864 5864 5865 5865 5863 5862 5861 5860 5860 5859 5858 5857 5856 5855 5854 5852 5851 5849 5847 5845 5844 5843 5842 5840
5881 5882 5882 5883 5883 5883 5883 5883 5883 5882 5881 5880 5880 5880 5880 5880 5880 5879 5879 5878 5878 5877 5877 5876 5876 5875 5874 5873 5872 5871 5869 5868 5867 5867 5866 5864 5863 5861 5860 5861 5861 5861 5862 5861 5859 5858 5857 5857 5856 5855 5854 5853 5852 5850 5849 5848 5846 5844 5842 5841 5840 5839 5837
5878 5879 5879 5880 5880 5880 5880 5881 5881 5880 5879 5879 5878 5878 5878 5878 5878 5878 5877 5877 5876 5875 5874 5874 5873 5872 5871 5870 5868 5866 5864 5863 5862 5861 5860 5859 5858 5857 5857 5857 5858 5858 5859 5858 5856 5854 5854 5853 5852 5851 5851 5850 5848 5847 5846 5844 5843 5841 5839 5838 5837 5836 5834
5875 5875 5876 5876 5877 5877 5878 5878 5878 5878 5877 5877 5877 5877 5877 5876 5876 5876 5875 5875 5874 5873 5872 5871 5870 5869 5868 5866 5863 5861 5860 5856 5853 5852 5853 5853 5853 5854 5854 5855 5855 5855 5855 5853 5852 5850 5850 5849 5848 5848 5847 5846 5845 5844 5842 5840 5839 5837 5835 5834 5833 5832 5830
5872 5872 5873 5873 5874 5874 5875 5875 5875 5875 5875 5875 5874 5875 5874 5874 5874 5873 5872 5872 5871 5870 5869 5868 5867 5866 5864 5861 5858 5855 5851 5847 5847 5850 5851 5850 5851 5851 5852 5852 5851 5851 5850 5849 5848 5847 5846 5845 5844 5844 5844 5843 5841 5839 5837 5836 5834 5832 5831 5830 5829 5828 5826
5869 5869 5870 5870 5871 5871 5871 5871 5872 5872 5872 5872 5872 5872 5871 5871 5871 5870 5869 5869 5867 5867 5866 5865 5864 5863 5860 5856 5851 5845 5842 5843 5847 5852 5852 5849 5848 5848 5847 5847 5846 5845 5845 5845 5844 5843 5842 5841 5840 5840 5840 5839 5837 5835 5833 5832 5830 5828 5826 5825 5824 5823 5822
5866 5866 5867 5867 5867 5867 5868 5868 5868 5868 5868 5868 5868 5868 5868 5868 5868 5867 5866 5865 5864 5863 5862 5861 5861 5858 5855 5851 5847 5844 5844 5845 5847 5849 5848 5846 5844 5842 5842 5842 5840 5840 5841 5840 5839 5839 5839 5837 5836 5836 5835 5834 5833 5831 5829 5828 5826 5825 5823 5821 5819 5818 5817
5863 5863 5864 5864 5864 5864 5864 5865 5865 5865 5865 5864 5865 5865 5864 5864 5864 5864 5863 5862 5861 5860 5858 5858 5856 5853 5850 5848 5848 5848 5847 5845 5845 5844 5841 5839 5838 5837 5837 5836 5836 5836 5836 5836 5835 5835 5834 5833 5832 5831 5830 5829 5828 5827 5825 5824 5822 5820 5819 5817 5815 5813 5811
5860 5860 5860 5860 5860 5860 5861 5861 5861 5861 5860 5860 5860 5861 5860 5860 5860 5860 5859 5858 5857 5856 5854 5853 5850 5848 5847 5846 5846 5845 5842 5840 5840 5837 5834 5833 5833 5833 5832 5831 5832 5832 5832 5832 5831 5830 5829 5828 5827 5826 5825 5824 5823 5822 5821 5820 5818 5816 5814 5812 5810 5809 5807
5857 5857 5857 5856 5856 5856 5857 5857 5857 5857 5856 5856 5856 5856 5857 5857 5857 5856 5855 5854 5853 5852 5850 5848 5846 5845 5844 5842 5840 5839 5836 5834 5833 5832 5832 5831 5830 5828 5827 5826 5827 5828 5828 5827 5827 5826 5825 5823 5822 5821 5820 5820 5819 5818 5817 5816 5814 5812 5810 5808 5806 5804 5802
5853 5853 5853 5853 5853 5853 5853 5854 5853 5853 5852 5852 5852 5852 5853 5853 5853 5853 5851 5850 5849 5847 5845 5844 5842 5841 5840 5837 5836 5833 5831 5830 5829 5828 5828 5827 5825 5824 5823 5822 5822 5822 5822 5822 5822 5821 5820 5818 5817 5817 5816 5815 5815 5814 5813 5811 5809 5807 5805 5803 5801 5799 5797
5849 5849 5849 5849 5849 5850 5850 5850 5849 5848 5848 5848 5848 5848 5849 5849 5849 5848 5847 5846 5844 5843 5841 5840 5839 5837 5835 5833 5832 5829 5826 5825 5824 5822 5822 5821 5820 5819 5818 5817 5817 5816 5816 5818 5818 5816 5814 5813 5812 5811 5811 5810 5810 5809 5807 5805 5803 5802 5800 5798 5796 5793 5791
5845 5845 5845 5845 5845 5845 5845 5845 5844 5844 5844 5844 5844 5844 5844 5844 5843 5843 5842 5841 5839 5838 5836 5835 5834 5832 5830 5828 5827 5825 5822 5820 5819 5817 5815 5814 5814 5813 5812 5812 5811 5810 5811 5812 5812 5810 5809 5808 5807 5806 5806 5805 5805 5803 5802 5800 5798 5796 5794 5792 5790 5788 5786
5840 5840 5841 5840 5840 5840 5840 5840 5839 5839 5839 5839 5839 5839 5839 5838 5838 5837 5836 5835 5834 5832 5831 5830 5829 5828 5825 5823 5822 5821 5818 5816 5814 5812 5809 5807 5807 5806 5806 5807 5806 5805 5806 5807 5806 5805 5804 5803 5802 5801 5801 5800 5799 5798 5797 5795 5792 5790 5788 5786 5784 5782 5780
5835 5835 5835 5835 5835 5835 5834 5834 5834 5834 5834 5834 5834 5834 5834 5833 5833 5832 5831 5830 5829 5828 5826 5826 5825 5823 5820 5818 5817 5816 5814 5812 5811 5810 5807 5804 5802 5802 5802 5802 5802 5801 5803 5803 5802 5800 5799 5798 5797 5796 5796 5796 5794 5793 5791 5789 5786 5784 5782 5780 5778 5776 5774
5829 5829 5829 5829 5829 5828 5828 5828 5828 5828 5829 5828 5828 5828 5828 5828 5827 5826 5826 5825 5824 5823 5822 5821 5819 5818 5816 5814 5812 5810 5809 5808 5807 5806 5805 5802 5799 5797 5797 5797 5797 5798 5799 5799 5798 5796 5795 5793 5792 5791 5791 5790 5789 5788 5786 5784 5781 5779 5777 5775 5773 5771 5769
5824 5824 5823 5822 5821 5821 5822 5823 5823 5823 5823 5823 5822 5822 5822 5822 5821 5820 5820 5819 5818 5817 5816 5815 5813 5812 5810 5809 5807 5805 5804 5804 5802 5801 5800 5799 5796 5795 5794 5793 5792 5793 5794 5794 5793 5792 5790 5788 5787 5786 5785 5784 5784 5782 5780 5779 5777 5774 5772 5770 5768 5766 5764
5819 5818 5818 5817 5817 5817 5818 5819 5819 5818 5818 5818 5817 5817 5817 5816 5816 5815 5814 5813 5812 5811 5810 5809 5807 5805 5805 5804 5803 5800 5799 5799 5798 5796 5795 5794 5793 5792 5791 5790 5789 5789 5789 5789 5788 5786 5785 5784 5783 5782 5780 5779 5778 5777 5775 5773 5772 5770 5767 5765 5762 5760 5759
5814 5814 5813 5813 5813 5813 5814 5814 5814 5813 5812 5812 5812 5811 5811 5811 5810 5810 5809 5808 5807 5805 5804 5803 5801 5800 5799 5798 5797 5796 5794 5794 5793 5792 5789 5788 5786 5786 5786 5786 5786 5786 5785 5784 5782 5781 5781 5780 5779 5777 5776 5774 5773 5771 5770 5768 5767 5765 5762 5759 5756 5755 5754
5809 5809 5809 5809 5809 5809 5809 5809 5809 5808 5807 5806 5806 5805 5805 5805 5805 5805 5804 5803 5802 5800 5799 5797 5796 5795 5794 5793 5793 5791 5790 5788 5788 5787 5785 5782 5781 5781 5781 5781 5782 5782 5780 5779 5778 5778 5777 5776 5774 5772 5770 5769 5767 5766 5765 5763 5761 5759 5756 5753 5751 5749 5747
5804 5805 5805 5804 5804 5804 5804 5804 5803 5802 5801 5800 5800 5800 5799 5799 5799 5799 5798 5797 5796 5795 5793 5792 5791 5790 5789 5789 5788 5787 5785 5784 5783 5782 5780 5778 5777 5776 5776 5776 5776 5776 5775 5774 5774 5774 5772 5770 5769 5767 5765 5764 5762 5761 5760 5758 5756 5753 5750 5748 5745 5743 5741
5799 5799 5799 5799 5799 5799 5799 5798 5797 5796 5795 5795 5794 5794 5793 5793 5793 5792 5792 5791 5790 5789 5788 5787 5786 5785 5784 5783 5783 5782 5781 5780 5779 5778 5776 5775 5773 5772 5772 5771 5771 5771 5770 5770 5770 5769 5767 5765 5763 5762 5760 5759 5758 5756 5754 5752 5750 5747 5744 5742 5740 5738 5735
5794 5794 5794 5794 5794 5793 5793 5792 5791 5790 5789 5789 5788 5788 5787 5786 5786 5786 5785 5784 5784 5783 5782 5782 5781 5780 5779 5778 5778 5777 5776 5775 5774 5773 5772 5771 5770 5769 5768 5767 5767 5766 5766 5765 5764 5763 5761 5759 5757 5756 5755 5754 5753 5750 5748 5745 5743 5740 5738 5736 5734 5732 5729
5789 5790 5790 5789 5788 5788 5787 5786 5785 5784 5783 5782 5782 5781 5780 5779 5779 5779 5779 5779 5779 5778 5778 5777 5776 5775 5774 5774 5773 5772 5771 5770 5769 5768 5767 5766 5765 5764 5764 5763 5762 5761 5761 5760 5759 5757 5756 5754 5752 5751 5750 5748 5746 5743 5741 5738 5736 5734 5732 5730 5728 5726 5723
5784 5784 5784 5783 5782 5781 5780 5780 5779 5778 5777 5776 5776 5775 5773 5773 5773 5774 5773 5774 5774 5773 5773 5772 5771 5770 5770 5769 5768 5767 5766 5765 5764 5763 5761 5760 5759 5758 5758 5757 5757 5756 5755 5754 5753 5752 5751 5749 5747 5746 5744 5742 5739 5737 5735 5733 5730 5728 5727 5724 5722 5719 5716
5778 5778 5777 5776 5775 5774 5773 5773 5772 5772 5771 5770 5770 5769 5769 5769 5769 5769 5769 5769 5769 5768 5768 5767 5766 5765 5764 5763 5762 5761 5760 5759 5758 5757 5755 5753 5753 5752 5751 5750 5750 5750 5750 5749 5748 5747 5745 5744 5742 5739 5737 5735 5733 5731 5729 5727 5724 5722 5720 5718 5715 5712 5709
5772 5772 5772 5771 5769 5768 5767 5766 5765 5765 5765 5765 5765 5765 5764 5764 5764 5764 5764 5764 5764 5763 5762 5761 5761 5760 5758 5757 5755 5755 5754 5753 5752 5749 5748 5747 5747 5746 5746 5746 5746 5746 5745 5744 5743 5741 5739 5737 5735 5732 5730 5728 5726 5725 5723 5721 5719 5716 5714 5711 5709 5706 5703
5766 5766 5766 5765 5764 5762 5761 5760 5760 5759 5759 5759 5759 5759 5759 5759 5759 5759 5759 5758 5758 5758 5757 5756 5756 5755 5753 5751 5749 5749 5748 5747 5746 5744 5742 5742 5743 5743 5743 5743 5742 5741 5739 5738 5736 5734 5732 5730 5727 5725 5724 5722 5720 5719 5717 5715 5712 5710 5707 5704 5702 5700 5698
5760 5760 5759 5759 5758 5758 5757 5757 5756 5755 5755 5754 5754 5754 5754 5754 5753 5753 5753 5752 5752 5752 5752 5751 5750 5749 5747 5745 5743 5742 5742 5742 5741 5740 5739 5739 5739 5738 5738 5737 5735 5734 5732 5731 5728 5726 5724 5722 5721 5719 5717 5716 5714 5712 5710 5708 5706 5703 5700 5698 5696 5694 5692
Wind_Speed
14 13 12 12 12 13 13 14 14 14 13 13 13 15 17 18 19 19 19 19 19 19 19 18 18 19 19 19 20 20 21 21 21 21 21 21 22 22 22 23 25 26 27 27 26 25 25 25 25 24 24 24 24 24 24 24 24 24 23 24 25 27 28
17 18 17 14 11 10 10 11 12 12 12 12 12 14 15 17 18 19 19 19 19 19 18 18 18 20 20 20 20 20 21 21 21 20 21 21 22 22 23 24 26 27 28 27 26 26 26 26 25 24 25 25 25 25 25 25 25 24 24 25 26 28 29
19 21 19 16 12 10 10 11 11 11 12 13 13 14 15 15 16 18 18 19 19 19 18 19 20 21 22 21 20 21 22 22 21 21 22 22 22 23 24 25 26 28 28 27 26 26 27 26 26 25 25 26 26 26 25 25 25 26 26 26 27 29 30
19 20 19 17 14 12 13 14 14 14 14 14 14 15 15 14 14 16 17 18 19 19 19 20 21 21 22 22 22 22 23 23 23 23 23 24 24 25 25 26 27 27 28 27 26 26 27 28 27 26 26 26 27 26 26 25 26 26 26 27 28 29 31
16 18 19 17 14 13 15 16 16 16 15 16 16 16 15 13 12 12 14 17 18 19 20 21 21 22 22 23 24 25 25 25 24 24 25 25 25 26 27 27 26 27 28 28 27 27 28 29 29 28 27 27 27 27 26 26 26 27 27 27 29 31 32
14 15 17 15 13 15 16 17 17 17 17 17 17 17 16 14 11 11 12 14 16 18 19 20 21 22 24 25 25 26 27 27 26 26 27 27 27 27 28 28 27 27 27 28 28 28 29 30 29 28 27 27 27 27 27 27 27 27 27 28 30 32 34
14 15 16 15 15 17 18 18 17 17 18 18 18 18 17 15 13 12 12 13 14 16 17 19 21 23 25 26 27 27 27 28 28 29 29 29 28 29 29 28 28 28 27 28 29 29 30 30 29 28 27 28 28 28 28 28 28 28 27 28 30 33 35
16 17 17 16 17 18 18 17 16 16 17 17 17 17 16 14 13 12 12 13 14 15 16 19 21 23 25 28 28 28 29 30 30 30 30 30 30 31 30 30 30 29 28 28 30 30 30 30 29 28 28 29 29 29 30 30 30 29 28 29 31 33 35
16 17 17 18 19 19 18 17 16 16 16 15 14 14 14 12 12 12 12 14 15 16 18 20 22 24 26 27 29 30 31 31 31 31 31 31 32 33 32 31 32 30 28 29 31 31 31 30 29 28 29 30 29 30 31 31 31 30 29 31 33 34 36
17 17 17 19 19 19 18 17 16 16 14 13 12 11 11 11 11 12 14 15 16 18 20 22 23 25 26 27 29 30 31 32 32 32 32 32 33 35 35 34 33 31 29 30 31 31 31 30 29 30 30 29 29 30 31 32 31 30 30 31 33 34 36
20 18 18 19 20 20 19 17 15 13 10 8 7 7 8 10 12 13 15 17 19 21 23 24 26 27 28 29 30 31 32 33 32 32 33 34 34 36 37 36 35 32 30 30 31 31 31 29 29 30 30 29 30 31 32 32 31 29 30 31 31 32 35
20 18 18 19 19 20 18 15 13 10 8 6 6 7 9 12 14 16 17 19 21 23 25 26 28 30 30 31 32 33 34 35 34 33 34 35 35 36 37 37 36 33 30 29 30 31 30 30 31 31 30 31 31 32 33 33 31 30 30 30 30 32 35
17 16 17 18 18 17 15 12 11 11 10 10 10 11 12 14 16 18 20 21 23 25 26 28 29 31 31 33 35 35 36 38 40 37 35 34 35 36 36 36 36 32 29 30 30 30 32 33 31 30 31 32 33 33 34 33 32 31 30 30 30 32 35
17 16 17 18 16 14 13 12 13 13 13 13 12 12 13 15 17 19 21 23 25 26 28 29 30 31 32 35 39 41 42 44 43 39 35 35 35 35 34 35 34 32 30 31 31 32 33 33 31 30 32 33 34 34 34 34 33 32 32 32 32 33 35
18 17 17 16 15 14 14 15 16 16 16 15 14 13 14 15 17 19 21 23 25 27 28 29 30 32 36 40 44 46 47 45 41 37 36 37 36 35 34 33 33 32 32 31 32 33 33 32 31 32 34 35 35 35 34 34 33 33 34 35 35 36 37
18 18 17 16 16 17 16 17 18 18 19 19 17 15 15 17 18 20 22 24 26 27 29 31 33 36 40 44 47 47 46 44 41 38 37 37 38 39 38 36 35 35 33 32 32 33 32 32 31 32 35 36 36 36 35 34 33 33 34 35 37 38 39
20 20 18 18 19 19 19 19 19 19 20 21 21 18 18 19 21 22 24 24 25 26 28 31 34 38 42 44 44 43 44 45 44 40 39 40 41 43 42 39 37 36 33 31 32 32 31 31 31 33 36 37 37 37 37 36 35 34 35 36 38 39 39
22 21 19 20 22 22 21 21 20 21 22 24 24 23 22 22 24 25 25 23 22 23 26 30 35 39 41 43 43 42 44 45 43 41 43 42 41 42 42 40 38 35 32 31 32 32 31 31 32 35 37 37 38 39 38 37 36 35 36 37 37 37 39
25 22 21 23 25 25 24 23 22 23 25 27 28 27 26 26 27 27 26 24 23 25 30 35 39 41 42 44 44 44 45 44 42 42 42 40 39 40 41 40 38 34 32 31 32 31 30 31 35 37 37 37 39 39 38 37 37 36 36 36 35 37 40
27 25 25 27 28 28 27 26 25 26 28 31 32 32 30 29 29 29 28 27 29 32 36 40 41 41 43 44 43 44 45 42 40 40 40 41 43 42 41 42 42 42 39 36 33 30 30 34 37 38 38 38 39 39 39 37 37 35 35 35 35 38 43
28 28 29 30 30 30 29 28 29 31 33 35 35 35 35 34 33 32 31 32 34 37 39 40 41 42 44 43 41 43 45 41 39 40 42 44 46 47 48 48 46 45 40 34 30 31 34 37 39 40 40 39 39 40 39 37 36 35 34 35 38 42 45
28 28 28 30 31 32 31 31 33 35 36 37 38 38 39 39 39 38 37 37 38 39 40 42 42 43 45 44 42 42 43 43 43 45 47 47 47 48 48 45 39 33 29 28 30 33 36 39 40 41 41 39 41 41 39 37 36 35 35 38 42 45 47
30 29 30 31 33 33 34 35 35 36 37 38 38 40 41 41 41 42 42 41 41 42 44 45 45 46 46 46 44 42 43 45 44 46 48 48 46 45 42 39 36 32 31 34 35 35 36 39 42 42 41 40 41 41 38 36 36 36 39 42 46 48 49
32 31 32 33 33 33 34 35 36 38 38 38 39 41 41 41 41 43 44 45 45 47 48 48 48 49 48 48 47 45 44 44 43 43 44 42 43 44 41 38 37 37 36 36 35 34 36 39 41 43 42 42 41 39 36 35 36 39 42 45 47 48 49
33 32 32 32 32 34 36 36 37 38 39 40 41 41 41 41 43 45 47 48 50 50 51 52 52 51 51 49 49 48 46 44 42 41 39 38 42 44 41 37 35 34 33 32 31 32 35 36 38 41 42 42 40 37 35 35 37 41 44 46 48 49 50
32 32 32 34 36 39 40 39 38 38 39 41 42 42 43 44 45 47 49 50 52 52 53 54 54 54 53 51 49 48 46 44 42 40 38 38 40 41 40 37 32 29 27 27 28 29 30 32 36 39 40 39 37 35 35 35 38 43 46 46 48 50 51
31 33 36 39 42 44 44 43 42 42 43 44 43 44 45 46 47 49 51 52 53 54 54 54 55 54 52 50 48 47 45 43 42 40 39 38 39 41 42 37 30 26 26 27 28 29 30 33 37 39 38 37 35 34 35 37 40 45 47 48 49 50 49
34 36 38 41 43 45 46 47 47 46 46 46 46 47 49 50 50 52 53 53 53 53 53 53 53 51 49 47 46 45 44 44 42 41 41 39 38 38 38 35 30 28 29 31 31 33 35 39 41 40 37 34 33 34 36 39 43 46 48 49 50 50 49
39 39 40 42 45 47 49 49 48 47 47 48 50 51 53 53 54 55 54 54 53 52 52 51 49 47 46 45 44 44 44 44 42 41 40 38 35 36 39 39 36 33 34 35 36 38 41 44 43 40 36 34 34 36 38 42 46 49 50 50 50 49 49
44 45 47 49 51 52 51 50 49 50 50 51 53 54 55 56 56 56 56 55 53 51 48 45 43 43 43 42 43 43 43 43 42 41 39 36 34 34 36 37 36 35 37 40 41 43 45 44 40 37 36 35 36 38 42 46 50 51 50 50 49 49 49
45 47 49 51 51 51 51 51 51 51 52 54 56 57 57 57 56 57 57 55 50 46 43 41 41 41 41 41 42 42 42 42 42 40 37 35 32 30 32 34 36 38 41 44 45 46 45 40 35 33 34 35 38 43 48 51 51 50 49 49 49 49 48
42 45 46 48 50 51 52 52 53 55 58 60 59 57 57 58 60 58 54 49 44 41 40 40 40 40 41 42 42 42 42 42 41 39 36 34 32 32 35 37 39 41 44 45 47 48 44 37 33 33 35 40 45 50 52 51 49 49 49 49 48 47 47
45 47 49 52 54 55 56 56 57 60 63 63 60 58 58 58 54 48 43 41 40 40 40 40 41 41 42 42 42 42 41 40 39 38 37 36 36 36 37 41 43 44 44 46 49 48 42 36 35 38 43 48 51 52 50 48 48 48 48 47 46 46 46
48 50 52 55 56 57 58 59 59 60 61 59 54 50 46 43 39 38 38 39 40 40 41 41 41 41 41 41 41 41 40 40 39 39 39 40 39 38 39 42 45 45 46 48 48 44 39 39 42 47 50 51 50 48 47 46 47 46 46 45 45 46 46
45 47 49 51 54 55 58 59 59 57 54 48 43 38 36 35 37 38 39 39 39 39 39 39 39 40 41 41 42 42 41 40 40 42 43 43 41 40 41 44 46 46 46 45 42 41 43 46 49 50 49 47 46 46 45 45 45 45 45 45 46 46 47
44 45 45 45 46 49 53 56 54 48 42 38 37 36 36 37 38 38 38 37 37 37 38 38 39 40 41 42 43 43 42 42 44 45 45 42 40 39 41 43 42 41 40 41 43 46 48 49 48 46 45 44 43 43 42 42 44 45 46 46 46 47 47
39 39 40 40 38 36 38 40 37 33 32 33 34 35 35 36 36 36 37 37 37 37 38 39 39 40 41 43 44 44 42 41 42 41 38 36 36 37 38 38 39 39 42 46 50 50 48 47 46 44 41 39 38 39 40 43 45 47 47 47 47 47 46
34 34 36 36 34 32 31 31 30 30 31 33 33 33 34 35 35 36 37 38 38 38 38 39 40 41 42 43 42 38 36 35 36 35 33 34 36 39 41 43 45 47 49 50 50 49 47 46 43 38 35 35 37 41 44 46 48 48 48 47 47 45 43
Wind_Direction
296 302 294 287 284 283 283 281 276 272 269 268 269 272 275 277 278 279 278 276 272 272 275 280 284 286 288 289 292 293 294 294 293 290 287 288 291 293 294 296 297 297 298 299 301 303 305 306 306 306 307 308 308 309 311 313 314 317 320 320 319 316 314
289 293 291 288 285 289 292 285 276 272 271 273 274 274 276 278 278 277 277 274 272 272 275 279 281 284 287 289 292 292 291 290 289 287 285 286 290 293 294 295 295 295 296 298 300 302 303 304 304 304 304 306 309 311 313 314 315 317 319 320 318 315 313
284 284 283 282 279 285 296 296 290 286 283 283 280 277 276 275 276 277 276 275 275 274 276 276 278 282 286 289 290 289 287 286 284 283 282 284 287 291 293 293 293 293 294 296 298 300 300 300 300 300 300 304 309 312 312 314 316 317 319 319 317 314 313
276 272 269 267 268 278 292 299 301 301 300 296 291 286 281 276 274 275 276 276 275 274 274 274 277 282 286 287 286 285 285 284 284 283 282 283 286 288 290 291 291 292 293 295 297 298 298 298 298 297 298 303 307 309 311 313 316 317 318 318 316 314 314
261 259 258 260 265 278 291 298 302 306 306 303 298 294 289 282 275 274 275 274 273 272 273 275 279 282 284 284 284 284 284 285 285 284 283 284 286 288 288 289 290 291 292 294 297 298 298 297 297 296 297 302 306 308 311 313 316 317 317 317 316 315 315
248 251 255 259 266 276 286 295 301 304 303 300 298 296 295 293 288 284 282 279 277 275 276 278 281 283 284 285 286 285 285 286 286 285 285 285 285 286 288 289 289 289 291 294 297 297 297 297 298 297 298 302 306 309 311 313 315 315 316 317 317 317 315
242 247 254 257 261 269 280 291 297 300 299 297 295 296 299 298 297 296 293 288 283 280 280 283 284 285 287 289 290 288 286 286 286 286 286 286 285 286 288 289 288 289 292 295 296 296 296 296 297 296 298 303 307 309 311 312 313 313 316 319 318 315 313
239 242 250 254 258 267 277 286 292 297 297 295 294 297 302 303 302 301 298 293 289 288 288 288 288 290 291 292 293 291 287 286 287 287 286 287 287 287 288 289 289 290 293 295 295 294 294 295 296 295 299 304 307 309 310 310 310 313 318 320 317 315 313
246 247 251 255 259 266 275 281 288 297 298 296 298 303 307 307 304 301 299 297 296 296 294 293 295 296 296 297 296 293 290 290 289 287 287 288 288 287 286 287 289 292 294 293 293 294 294 294 294 295 300 306 307 307 307 308 310 315 319 320 319 318 317
258 260 257 257 260 265 272 278 288 298 297 292 300 306 305 304 302 300 300 299 299 299 298 297 298 300 301 302 301 298 296 293 290 287 285 286 286 284 283 286 289 291 291 292 293 293 292 293 293 295 302 306 305 304 305 307 312 317 320 320 319 318 316
261 260 255 256 259 263 268 274 286 299 296 288 297 306 301 297 298 299 299 300 300 298 297 298 300 301 302 303 303 302 297 293 290 287 282 280 280 280 281 284 287 289 291 292 292 291 290 292 293 296 302 303 302 303 305 308 314 317 318 318 317 316 316
257 253 250 253 255 258 263 268 281 295 297 292 290 291 294 293 293 294 294 295 295 293 294 296 297 298 299 301 301 300 297 293 289 283 277 275 275 277 279 282 286 290 292 291 289 287 289 291 292 296 301 301 300 303 305 309 314 315 315 315 313 314 317
253 245 242 246 251 258 266 273 283 291 294 294 286 281 285 288 290 291 290 289 289 288 290 292 295 297 299 299 298 298 297 292 283 275 270 270 273 274 276 281 287 291 292 289 286 286 289 290 292 298 301 299 300 303 305 309 312 313 313 310 308 312 319
248 243 244 249 256 267 278 287 293 294 295 293 286 280 281 285 291 293 292 292 289 287 289 291 295 298 298 299 298 295 291 284 276 269 264 267 272 272 274 281 286 289 290 289 288 288 290 292 295 299 300 299 300 303 305 308 310 310 310 307 304 308 316
251 251 256 260 267 275 282 289 293 294 295 290 282 278 277 282 292 295 295 295 292 290 291 291 295 299 300 299 294 288 284 279 275 272 269 272 275 272 274 280 282 283 287 288 288 289 290 293 296 298 298 299 300 303 305 306 307 307 307 305 303 305 310
261 265 269 270 270 274 280 287 289 290 292 291 285 280 277 283 292 296 299 298 294 292 290 291 297 299 298 296 291 287 285 283 283 281 275 274 274 271 274 279 278 280 283 283 285 288 291 294 295 296 296 297 300 302 303 303 304 304 303 303 303 302 306
274 277 275 271 269 273 279 285 285 284 288 291 290 288 286 289 296 303 306 304 298 295 295 297 301 299 299 302 301 297 293 289 288 285 277 271 271 273 277 278 277 280 281 279 282 287 292 294 292 292 293 295 298 300 301 302 303 304 304 304 302 302 305
280 279 273 269 270 273 277 280 280 281 285 288 291 292 291 292 299 305 307 304 301 301 303 305 304 302 305 309 308 305 301 294 287 283 278 273 274 277 277 276 278 279 278 277 281 285 289 289 288 289 291 293 297 299 299 302 304 305 306 304 303 303 307
276 273 267 267 270 273 277 278 278 281 285 287 289 291 290 291 298 303 302 299 298 300 302 305 306 307 310 310 308 308 306 299 290 285 283 280 280 280 278 275 276 275 275 279 282 282 284 285 286 288 289 291 294 297 299 301 303 305 304 303 304 306 310
266 265 265 267 269 273 278 280 279 280 284 287 290 293 292 291 294 297 297 296 296 297 300 304 307 310 311 310 308 308 307 303 296 291 288 283 283 284 281 278 278 276 276 280 283 282 284 286 286 287 287 289 292 295 297 300 302 303 302 303 307 310 313
261 264 268 269 271 275 278 277 277 280 284 286 290 294 295 292 291 294 295 296 297 299 302 306 310 313 312 310 307 304 304 305 302 298 295 291 288 285 280 281 284 280 276 278 282 284 287 288 288 288 288 289 291 294 296 299 302 302 302 305 309 312 314
261 263 264 265 268 271 273 273 275 279 282 284 287 291 293 292 292 294 295 296 299 302 305 308 312 314 312 308 305 303 303 304 304 302 301 297 291 284 279 280 281 276 277 287 290 289 290 291 290 290 289 290 292 293 296 301 304 304 305 308 311 313 315
259 257 257 261 266 270 273 274 275 276 278 281 284 287 290 292 293 294 296 298 301 304 306 308 311 312 310 306 304 302 302 304 305 306 304 299 291 284 279 278 275 271 281 296 296 291 291 292 291 291 291 291 292 293 296 301 304 305 307 310 311 313 314
256 255 256 262 267 269 270 270 271 274 277 280 281 284 287 289 291 293 296 299 301 302 304 306 307 307 306 305 302 301 302 303 304 305 305 301 293 285 278 277 276 275 283 291 291 288 290 291 292 293 292 291 290 292 296 300 303 306 309 310 312 312 312
253 254 258 262 263 262 261 262 266 272 276 278 280 282 285 287 290 293 296 297 299 300 301 302 303 303 302 302 301 300 302 303 304 303 303 302 298 291 281 276 277 278 280 284 285 288 291 291 292 293 292 290 290 292 295 299 303 307 309 310 310 309 310
251 253 257 259 258 260 262 263 266 270 272 275 278 281 284 287 290 293 295 296 297 298 299 300 300 299 299 298 298 299 300 302 302 301 300 300 298 291 282 278 276 272 272 279 287 292 294 295 294 292 290 290 289 290 293 297 302 306 308 308 307 308 311
251 252 255 258 262 266 269 271 273 275 276 277 278 281 284 287 290 291 293 294 296 297 298 298 297 296 295 295 295 296 299 300 300 300 300 298 295 287 280 276 270 263 268 281 291 296 299 302 301 296 291 289 288 289 293 296 300 304 306 306 306 308 310
253 256 259 263 267 271 273 276 279 280 279 277 279 282 285 286 287 289 291 292 294 295 296 296 294 293 291 291 293 295 296 297 298 300 300 298 292 284 275 270 265 265 274 287 295 300 302 304 304 299 292 289 288 290 293 297 301 304 305 305 305 306 307
258 262 265 267 268 271 273 275 277 277 276 277 279 282 284 285 286 288 289 291 291 292 293 292 291 289 288 289 291 293 294 295 297 299 302 299 291 280 273 271 268 268 279 290 296 299 302 303 303 299 292 289 289 290 293 298 301 303 303 303 304 304 305
262 264 267 268 269 271 273 275 277 276 277 279 280 281 283 284 285 288 290 290 289 288 288 287 287 288 288 289 290 290 292 294 296 298 302 302 294 281 273 268 263 265 279 289 292 296 301 302 300 294 289 287 289 291 295 298 299 300 301 301 302 302 304
263 265 268 270 272 274 276 278 280 279 279 279 279 279 280 281 283 287 290 288 285 283 282 282 285 286 286 287 288 289 290 292 293 297 302 303 296 279 266 259 258 266 279 286 289 295 300 299 294 290 288 289 292 295 297 297 298 299 299 299 300 301 302
266 269 271 274 275 277 278 279 280 281 282 281 279 278 280 281 282 285 286 282 279 278 278 280 283 284 285 286 286 287 288 290 292 296 300 301 294 279 266 263 266 274 282 285 289 295 298 294 290 289 290 293 295 296 297 297 298 298 298 297 298 300 300
271 273 275 276 276 275 277 277 278 281 283 283 281 281 281 280 279 279 278 275 275 276 278 280 282 283 284 285 285 286 288 289 293 296 297 295 291 282 271 267 271 276 281 285 289 291 290 287 287 290 293 296 296 296 296 297 296 295 296 297 298 300 300
274 276 278 279 278 277 277 277 277 279 281 281 282 282 279 274 271 271 272 273 275 276 278 281 282 283 283 284 285 286 288 290 293 294 292 289 285 279 271 267 269 273 279 284 285 284 284 286 289 292 295 296 295 295 295 295 294 295 296 298 299 300 300
276 278 281 282 282 280 278 277 278 279 278 276 276 277 273 270 270 271 272 274 276 278 280 281 282 283 283 284 285 286 288 291 292 290 287 284 281 274 267 265 268 274 278 281 282 284 288 290 292 294 295 295 294 294 294 294 295 297 298 299 300 300 300
277 278 280 283 285 283 279 277 277 274 270 267 269 271 270 270 271 271 273 276 277 279 280 281 281 283 284 285 286 287 289 290 289 287 284 282 278 272 267 267 271 276 279 282 287 290 291 292 293 295 295 295 294 295 296 297 299 299 299 300 300 300 300
278 278 279 284 289 289 282 277 273 267 263 264 266 267 268 269 271 273 275 276 277 278 279 280 281 283 283 284 286 288 288 287 287 287 285 280 276 273 273 275 278 280 283 287 291 291 291 293 295 296 296 295 296 298 301 302 302 300 300 300 299 300 300
279 279 279 280 284 286 283 278 271 266 265 265 265 266 268 270 271 273 274 275 277 279 280 281 282 283 284 285 287 287 286 285 287 288 285 280 277 278 280 283 284 285 288 289 290 290 293 296 297 297 297 299 301 303 304 303 301 300 299 299 299 300 299